Terug naar catalogus

FENGYUN 1C DEB

ActiefSSO
NORAD 32334·DEBRIS·🇨🇳 China

Gelanceerd May 10, 1999 vanaf Taiyuan Satellite Launch Center

Loading…

Volgende Passages (komende 24 uur)

TLE

VersSource: Space-Track

Epoch: Sep 14, 2026, 09:50 UTC

1 32334U 99025CYB 26257.41017364  .00000304  00000-0  22559-3 0  9991
2 32334  99.2201 320.2417 0067201 241.6277 117.8102 14.01952825978027

Volg FENGYUN 1C DEB in realtime met AllMySat

Download on the App Store